CZ-6A DEB, 54580

Orbit data source: Space-Track

CZ-6A DEB, 54580 is space debris in SSO originally from a launch on Fri, 11 Nov 2022 UTC launched from the Taiyaun Space Center, China (TSC). Debris objects in space refer to the collection of defunct objects orbiting the Earth. Examples of debris include non-operational satellites, rocket bodies, and fragments generated from explosions, collisions, or faulty payload assembly.

Loading next visibility...
Identifier
54580, 2022-151MG
Orbit
SSO
Country
Flag of CNCN / PRC
Related business
Manufacturer
SAST
Mission
Spacecraft
Bus & Motor
Unknown
Mass
Unknown
Launch date (UTC)
2022-11-11 (4 years ago)
Launch vehicle
Unknown
Launch site
Taiyaun Space Center, China (TSC)
Object type
Payload
Rocket body
Debris
Shape & HBR
Unknown shape, 0.1 m
Radar Cross Section
Medium (>0.1 m² and <1 m²)

Expand to show TLE details & history
Last TLE update: 13 hours ago

TLE from 13 hours ago
0 CZ-6A DEB
1 54580U 22151MG  26236.49938339  .00003561  00000-0  14905-2 0  9996
2 54580  98.8610 252.8001 0086801 163.9867 196.4087 14.24657226194544
Epoch: 2026-08-24T11:59Z
TLE epoch observation values (Epoch: 2026-08-24T11:59:06.724Z)
Latitude
-0.00002°
Longitude
100.24188°
Altitude
872.466 km
Speed
7.385 km/s
True Right ascension
16h 51m 12s
True Declination
0° 00' 00"
Sunlit
Object was in daylight at epoch
Visualization orbit readout
Latitude
Unknown
Longitude
Unknown
Altitude
Unknown
Speed
Unknown
Apparent Right ascension
Unknown
Apparent Declination
Unknown
Sunlit
N/A
Visualization observer readout
Local Sidereal Time
15:53:49
Azimuth
Unknown
Elevation
Unknown
Doppler factor
Unknown
Orbital elements
Apogee altitude
869.171 km
Perigee altitude
744.439 km
Semi-major axis
7,184.942 km
Eccentricity
0.00868
Inclination
98.861°
RAAN
252.8001°
Arg. of periapsis
163.9867°
True anomaly
196.13062°
Mean anomaly
196.4087°
Eccentric anomaly
196.26937°
Mean motion
3.56376 °/min
Orbital period
101.02 mins
BSTAR
0.0014905
Loading maneuver chart data...
Computing Atmospheric mass density...
Loading historical data...
Loading historical data...
Loading historical data...
Loading historical data...
Loading historical data...
Loading historical data...
Loading historical data...

Documentation

Showing up to 5 results
|